Regional Weather Roundup
Issued by NWS

Home | Current Version | Previous Version | Text Only | Print | Product List | Glossary Off
Versions: 1 2 3 4 5 6 7 8 9 10 11 12 13 14 15 16 17 18 19 20 21 22 23 24 25 26 27 28 29 30 31 32 33 34 35 36 37 38 39 40 41 42 43 44 45 46 47 48 49 50

000
ASUS43 KBIS 200110
RWRND

NORTH DAKOTA REGIONAL WEATHER ROUNDUP
NATIONAL WEATHER SERVICE BISMARCK ND
700 PM CST MON FEB 19 2018

NOTE: "FAIR" INDICATES FEW OR NO CLOUDS BELOW 12,000 FEET WITH NO
SIGNIFICANT WEATHER AND/OR OBSTRUCTIONS TO VISIBILITY.


NDZ001>003-009>011-017-200200-
NORTHWEST NORTH DAKOTA

CITY           SKY/WX    TMP DP  RH WIND       PRES   REMARKS
WILLISTON      CLOUDY     2  -4  76 NW5       30.15S WCI  -8
MINOT          CLOUDY     7  -3  64 NW5       30.17S WCI  -2
MINOT AFB      PTCLDY     6  -2  69 N5        30.16S WCI  -3
$$

NDZ018>021-031>035-040>046-200200-
SOUTHWEST NORTH DAKOTA

CITY           SKY/WX    TMP DP  RH WIND       PRES   REMARKS
BISMARCK       LGT SNOW   4  -2  76 N12       30.16S WCI -12
DICKINSON      LGT SNOW   2  -3  80 NE3       30.05S
GARRISON         N/A      4  -1  80 N3        30.15S
HETTINGER ARPT LGT SNOW   1  -5  75 NE9       30.06R WCI -14
$$

NDZ004>008-012>016-024-026-027-054-200200-
NORTHEAST NORTH DAKOTA

CITY           SKY/WX    TMP DP  RH WIND       PRES   REMARKS
GRAND FORKS    CLOUDY     6  -4  63 N16       30.23S WCI -12
GRND FRKS AFB  CLOUDY     4  -6  61 N15       30.23S WCI -14
DEVILS LAKE    FLURRIES   4  -6  63 NE3       30.22R
$$

NDZ022-023-025-028>030-036>039-047>053-200200-
SOUTHEAST NORTH DAKOTA

CITY           SKY/WX    TMP DP  RH WIND       PRES   REMARKS
FARGO          CLOUDY     6   0  76 N21G31    30.15S WCI -14
JAMESTOWN      LGT SNOW   4  -2  76 N17       30.14S WCI -16
$$





USA.gov is the U.S. government's official web portal to all federal, state and local government web resources and services.